KAC381 OKKK-VIDP

Flight info

Callsign KAC381
Flight time 3h 57m
Altitude 37000
Route SESRU M677 OBNET/N0511F310 M677 ITBUL/N0501F350 M677 VUTEB L223 LOVEM M677 KURTU/N0496F370 DCT NOLSU/N0500F350 P307 TONVO/N0496F370 P307 VAXIM L301 RASKI L639 LAXOM J61 UUD A347 UKASO UKASO7C
Aircraft B77W/H-SDE1E2E3FGHIJ2J3J4J5M1RWXY/LB1D1

Departure

Time 2026-04-27 09:48
Airport Kuwait International Airport (OKKK)

Arrival

Time 2026-04-27 13:45
Airport Indira Gandhi International Airport (VIDP)
Time Latitude Longitude Altitude Speed Heading
2026-04-27 09:02 29.23869 47.97086 159 ft 0 kts 27°
2026-04-27 09:35 29.23864 47.97083 159 ft 2 kts 25°
2026-04-27 09:35 29.23850 47.97076 159 ft 2 kts 18°
2026-04-27 09:36 29.23835 47.97072 159 ft 2 kts 12°
2026-04-27 09:36 29.23821 47.97069 159 ft 2 kts
2026-04-27 09:36 29.23806 47.97068 159 ft 2 kts
2026-04-27 09:36 29.23791 47.97068 159 ft 2 kts 354°
2026-04-27 09:37 29.23776 47.97070 159 ft 2 kts 348°
2026-04-27 09:37 29.23761 47.97075 159 ft 2 kts 343°
2026-04-27 09:37 29.23747 47.97080 159 ft 2 kts 337°
2026-04-27 09:37 29.23739 47.97084 159 ft 0 kts 334°
2026-04-27 09:41 29.23743 47.97082 159 ft 2 kts 334°
2026-04-27 09:41 29.23758 47.97074 159 ft 2 kts 334°
2026-04-27 09:41 29.23776 47.97064 158 ft 3 kts 334°
2026-04-27 09:41 29.23794 47.97050 158 ft 3 kts 311°
2026-04-27 09:42 29.23804 47.97022 158 ft 4 kts 279°
2026-04-27 09:42 29.23795 47.96981 157 ft 5 kts 233°
2026-04-27 09:42 29.23768 47.96944 156 ft 6 kts 239°
2026-04-27 09:42 29.23746 47.96898 155 ft 7 kts 243°
2026-04-27 09:43 29.23723 47.96844 154 ft 7 kts 244°
2026-04-27 09:43 29.23700 47.96787 153 ft 8 kts 245°
2026-04-27 09:43 29.23676 47.96725 152 ft 8 kts 245°
2026-04-27 09:43 29.23652 47.96665 151 ft 6 kts 246°
2026-04-27 09:44 29.23652 47.96624 151 ft 4 kts 302°
2026-04-27 09:44 29.23679 47.96601 151 ft 4 kts 329°
2026-04-27 09:44 29.23710 47.96582 151 ft 5 kts 334°
2026-04-27 09:44 29.23755 47.96558 151 ft 8 kts 334°
2026-04-27 09:45 29.23819 47.96524 151 ft 11 kts 335°
2026-04-27 09:45 29.23898 47.96481 151 ft 14 kts 335°
2026-04-27 09:45 29.23997 47.96429 150 ft 15 kts 335°
2026-04-27 09:45 29.24078 47.96386 149 ft 8 kts 334°
2026-04-27 09:46 29.24092 47.96335 148 ft 8 kts 254°
2026-04-27 09:46 29.24069 47.96271 147 ft 8 kts 245°
2026-04-27 09:46 29.24046 47.96212 147 ft 7 kts 246°
2026-04-27 09:46 29.24021 47.96179 148 ft 3 kts 187°
2026-04-27 09:47 29.23966 47.96199 148 ft 26 kts 158°
2026-04-27 09:47 29.23556 47.96415 151 ft 101 kts 154°
2026-04-27 09:47 29.22705 47.96867 168 ft 165 kts 154°
2026-04-27 09:47 29.21618 47.97433 705 ft 178 kts 155°
2026-04-27 09:48 29.20525 47.98082 1560 ft 184 kts 142°
2026-04-27 09:48 29.19731 47.99250 2334 ft 189 kts 119°
2026-04-27 09:48 29.19142 48.00611 2915 ft 195 kts 118°
2026-04-27 09:48 29.18544 48.02013 3513 ft 201 kts 118°
2026-04-27 09:49 29.17911 48.03495 3921 ft 218 kts 118°
2026-04-27 09:49 29.17217 48.05121 4374 ft 236 kts 117°
2026-04-27 09:49 29.16472 48.06871 4859 ft 254 kts 117°
2026-04-27 09:49 29.15677 48.08746 5368 ft 271 kts 117°
2026-04-27 09:50 29.15142 48.10833 6007 ft 283 kts 96°
2026-04-27 09:50 29.15076 48.13104 6795 ft 288 kts 91°
2026-04-27 09:50 29.15089 48.15386 7503 ft 295 kts 90°
2026-04-27 09:50 29.15103 48.17772 7901 ft 304 kts 90°
2026-04-27 09:51 29.15109 48.20188 8673 ft 307 kts 90°
2026-04-27 09:51 29.15113 48.22638 9585 ft 307 kts 90°
2026-04-27 09:51 29.15115 48.25074 10257 ft 315 kts 90°
2026-04-27 09:51 29.15116 48.27665 10726 ft 332 kts 90°
2026-04-27 09:52 29.15117 48.30346 11226 ft 349 kts 90°
2026-04-27 09:52 29.15117 48.33174 11693 ft 366 kts 90°
2026-04-27 09:52 29.15117 48.36176 12180 ft 383 kts 90°
2026-04-27 09:52 29.15115 48.39251 12754 ft 398 kts 90°
2026-04-27 09:53 29.15114 48.42444 13502 ft 407 kts 90°
2026-04-27 09:53 29.15111 48.45679 14358 ft 414 kts 90°
2026-04-27 09:53 29.15107 48.49055 14987 ft 428 kts 90°
2026-04-27 09:53 29.15103 48.52484 15730 ft 438 kts 91°
2026-04-27 09:54 29.15098 48.55969 16605 ft 443 kts 91°
2026-04-27 09:54 29.15092 48.59473 17465 ft 448 kts 91°
2026-04-27 09:54 29.15084 48.63072 18310 ft 455 kts 91°
2026-04-27 09:54 29.15076 48.66681 19000 ft 463 kts 91°
2026-04-27 09:55 29.15066 48.70377 19721 ft 471 kts 91°
2026-04-27 09:55 29.15056 48.74137 20458 ft 478 kts 91°
2026-04-27 09:55 29.14982 48.81805 21902 ft 489 kts 96°
2026-04-27 09:56 29.14484 48.85666 22548 ft 493 kts 105°
2026-04-27 09:56 29.13456 48.89424 23216 ft 495 kts 115°
2026-04-27 09:56 29.11927 48.92952 23843 ft 497 kts 125°
2026-04-27 09:56 29.09953 48.96133 24473 ft 497 kts 135°
2026-04-27 09:57 29.07543 48.98957 25061 ft 496 kts 144°
2026-04-27 09:57 29.04890 49.01516 25719 ft 499 kts 146°
2026-04-27 09:57 29.02209 49.04059 26355 ft 504 kts 146°
2026-04-27 09:57 28.99498 49.06643 26976 ft 509 kts 146°
2026-04-27 09:58 28.96811 49.09216 27596 ft 513 kts 146°
2026-04-27 09:58 28.94055 49.11865 28182 ft 518 kts 146°
2026-04-27 09:58 28.91277 49.14540 28734 ft 523 kts 146°
2026-04-27 09:58 28.88512 49.17208 29290 ft 528 kts 146°
2026-04-27 09:59 28.85712 49.19960 29956 ft 530 kts 145°
2026-04-27 09:59 28.82995 49.22746 30629 ft 530 kts 145°
2026-04-27 09:59 28.80254 49.25569 31254 ft 530 kts 145°
2026-04-27 09:59 28.77506 49.28394 31806 ft 531 kts 145°
2026-04-27 10:00 28.74781 49.31192 32275 ft 533 kts 145°
2026-04-27 10:00 28.72030 49.34013 32757 ft 534 kts 146°
2026-04-27 10:00 28.69262 49.36848 33321 ft 534 kts 146°
2026-04-27 10:00 28.66488 49.39688 33939 ft 533 kts 146°
2026-04-27 10:01 28.63771 49.42466 34502 ft 532 kts 146°
2026-04-27 10:01 28.61140 49.45515 35031 ft 541 kts 137°
2026-04-27 10:01 28.58895 49.48949 35482 ft 550 kts 129°
2026-04-27 10:01 28.56874 49.52668 35887 ft 553 kts 127°
2026-04-27 10:02 28.54901 49.56398 36293 ft 554 kts 127°
2026-04-27 10:02 28.52882 49.60212 36685 ft 555 kts 127°
2026-04-27 10:02 28.50907 49.63935 36838 ft 559 kts 127°
2026-04-27 10:02 28.48871 49.67763 36825 ft 557 kts 127°
2026-04-27 10:03 28.44904 49.75208 36822 ft 554 kts 128°
2026-04-27 10:03 28.40121 49.81894 36826 ft 540 kts 146°
2026-04-27 10:04 28.34202 49.86940 36827 ft 526 kts 155°
2026-04-27 10:04 28.28160 49.91555 36826 ft 523 kts 155°
2026-04-27 10:05 28.22085 49.96175 36828 ft 526 kts 155°
2026-04-27 10:05 28.16029 50.00774 36828 ft 524 kts 155°
2026-04-27 10:06 28.09976 50.05360 36828 ft 524 kts 155°
2026-04-27 10:06 28.03895 50.09959 36830 ft 528 kts 154°
2026-04-27 10:07 27.97775 50.14585 36828 ft 524 kts 154°
2026-04-27 10:07 27.91697 50.19168 36830 ft 528 kts 155°
2026-04-27 10:08 27.85591 50.23768 36832 ft 526 kts 154°
2026-04-27 10:08 27.79521 50.28335 36833 ft 526 kts 154°
2026-04-27 10:09 27.73456 50.32892 36840 ft 525 kts 154°
2026-04-27 10:09 27.67336 50.37481 36846 ft 528 kts 154°
2026-04-27 10:10 27.61237 50.42057 36851 ft 528 kts 154°
2026-04-27 10:10 27.55158 50.46721 36852 ft 528 kts 153°
2026-04-27 10:11 27.49102 50.51368 36852 ft 528 kts 153°
2026-04-27 10:11 27.43015 50.56028 36851 ft 528 kts 153°
2026-04-27 10:12 27.36933 50.60679 36854 ft 528 kts 153°
2026-04-27 10:12 27.30841 50.65328 36855 ft 530 kts 154°
2026-04-27 10:13 27.24786 50.69944 36840 ft 527 kts 154°
2026-04-27 10:13 27.18697 50.74577 36837 ft 529 kts 153°
2026-04-27 10:14 27.12896 50.79707 36831 ft 540 kts 142°
2026-04-27 10:14 27.07603 50.85675 36828 ft 539 kts 141°
2026-04-27 10:15 27.02315 50.91666 36825 ft 542 kts 140°
2026-04-27 10:15 26.97734 50.98437 36828 ft 549 kts 127°
2026-04-27 10:16 26.93702 51.05729 36827 ft 551 kts 126°
2026-04-27 10:16 26.89681 51.13008 36830 ft 552 kts 126°
2026-04-27 10:17 26.86268 51.20769 36829 ft 559 kts 112°
2026-04-27 10:17 26.83787 51.28996 36832 ft 560 kts 111°
2026-04-27 10:18 26.81327 51.37239 36830 ft 559 kts 111°
2026-04-27 10:18 26.78854 51.45491 36828 ft 559 kts 111°
2026-04-27 10:19 26.76389 51.53688 36829 ft 559 kts 111°
2026-04-27 10:19 26.73908 51.61917 36830 ft 558 kts 111°
2026-04-27 10:20 26.71444 51.70119 36812 ft 557 kts 111°
2026-04-27 10:20 26.68993 51.78302 36815 ft 558 kts 111°
2026-04-27 10:21 26.66517 51.86544 36815 ft 559 kts 111°
2026-04-27 10:21 26.63994 51.94714 36816 ft 559 kts 113°
2026-04-27 10:22 26.61325 52.02869 36815 ft 558 kts 112°
2026-04-27 10:22 26.58668 52.10982 36815 ft 558 kts 112°
2026-04-27 10:23 26.56000 52.19128 36817 ft 558 kts 112°
2026-04-27 10:23 26.53343 52.27228 36816 ft 558 kts 112°
2026-04-27 10:24 26.50672 52.35357 36816 ft 556 kts 112°
2026-04-27 10:24 26.48021 52.43413 36820 ft 556 kts 112°
2026-04-27 10:25 26.45347 52.51519 36817 ft 555 kts 112°
2026-04-27 10:25 26.42681 52.59585 36816 ft 555 kts 112°
2026-04-27 10:26 26.40000 52.67683 36797 ft 554 kts 112°
2026-04-27 10:26 26.37334 52.75719 36802 ft 556 kts 113°
2026-04-27 10:27 26.34644 52.83808 36802 ft 556 kts 112°
2026-04-27 10:27 26.31971 52.91820 36800 ft 556 kts 112°
2026-04-27 10:28 26.29272 52.99893 36801 ft 554 kts 113°
2026-04-27 10:28 26.26600 53.07867 36801 ft 554 kts 112°
2026-04-27 10:29 26.23895 53.15925 36795 ft 554 kts 113°
2026-04-27 10:29 26.21217 53.23886 36795 ft 554 kts 113°
2026-04-27 10:30 26.18505 53.31929 36795 ft 553 kts 112°
2026-04-27 10:30 26.15528 53.39753 36799 ft 553 kts 117°
2026-04-27 10:31 26.12322 53.47522 36791 ft 551 kts 117°
2026-04-27 10:31 26.09149 53.55241 36793 ft 551 kts 116°
2026-04-27 10:32 26.05970 53.62997 36798 ft 550 kts 116°
2026-04-27 10:32 26.02802 53.70730 36793 ft 549 kts 117°
2026-04-27 10:33 25.99655 53.78473 36790 ft 551 kts 116°
2026-04-27 10:33 25.96613 53.86240 36791 ft 551 kts 115°
2026-04-27 10:34 25.93571 53.93997 36789 ft 550 kts 116°
2026-04-27 10:34 25.90442 54.01755 36795 ft 547 kts 118°
2026-04-27 10:35 25.87066 54.09322 36788 ft 548 kts 118°
2026-04-27 10:35 25.83681 54.16901 36782 ft 547 kts 118°
2026-04-27 10:36 25.80705 54.24720 36786 ft 550 kts 110°
2026-04-27 10:36 25.78229 54.32687 36780 ft 550 kts 110°
2026-04-27 10:37 25.75733 54.40721 36778 ft 550 kts 110°
2026-04-27 10:37 25.73243 54.48718 36773 ft 550 kts 110°
2026-04-27 10:38 25.70755 54.56685 36774 ft 550 kts 110°
2026-04-27 10:38 25.68239 54.64651 36775 ft 549 kts 110°
2026-04-27 10:39 25.65676 54.72622 36756 ft 549 kts 111°
2026-04-27 10:39 25.63121 54.80557 36754 ft 548 kts 111°
2026-04-27 10:40 25.60360 54.88409 36764 ft 547 kts 117°
2026-04-27 10:40 25.57076 54.95965 36764 ft 548 kts 117°
2026-04-27 10:41 25.53763 55.03537 36758 ft 547 kts 117°
2026-04-27 10:41 25.50450 55.11102 36759 ft 547 kts 117°
2026-04-27 10:42 25.47121 55.18694 36765 ft 547 kts 117°
2026-04-27 10:42 25.44402 55.26522 36767 ft 548 kts 103°
2026-04-27 10:43 25.43097 55.34796 36779 ft 550 kts 98°
2026-04-27 10:43 25.41915 55.43102 36785 ft 549 kts 98°
2026-04-27 10:44 25.40726 55.51399 36790 ft 548 kts 98°
2026-04-27 10:44 25.39530 55.59703 36795 ft 549 kts 98°
2026-04-27 10:45 25.38326 55.68020 36788 ft 548 kts 99°
2026-04-27 10:45 25.36918 55.76289 36794 ft 547 kts 107°
2026-04-27 10:46 25.34009 55.84029 36799 ft 547 kts 117°
2026-04-27 10:46 25.30693 55.91565 36801 ft 546 kts 117°
2026-04-27 10:47 25.27370 55.99083 36816 ft 545 kts 117°
2026-04-27 10:47 25.24040 56.06601 36838 ft 548 kts 117°
2026-04-27 10:48 25.20860 56.14193 36843 ft 546 kts 111°
2026-04-27 10:48 25.18319 56.22094 36860 ft 548 kts 110°
2026-04-27 10:49 25.15800 56.30004 36861 ft 547 kts 110°
2026-04-27 10:49 25.13269 56.37928 36834 ft 548 kts 109°
2026-04-27 10:50 25.10745 56.45805 36799 ft 547 kts 109°
2026-04-27 10:50 25.08199 56.53728 36764 ft 547 kts 110°
2026-04-27 10:51 25.05390 56.61484 36767 ft 545 kts 112°
2026-04-27 10:51 25.02506 56.69186 36742 ft 545 kts 113°
2026-04-27 10:52 24.99633 56.76880 36730 ft 543 kts 113°
2026-04-27 10:52 24.96760 56.84581 36737 ft 543 kts 112°
2026-04-27 10:53 24.92450 56.96130 36709 ft 542 kts 112°
2026-04-27 10:54 24.89564 57.03850 36705 ft 543 kts 112°
2026-04-27 10:54 24.86707 57.11485 36701 ft 542 kts 112°
2026-04-27 10:55 24.83831 57.19156 36701 ft 543 kts 112°
2026-04-27 10:55 24.80943 57.26848 36706 ft 543 kts 112°
2026-04-27 10:56 24.78071 57.34482 36706 ft 543 kts 112°
2026-04-27 10:56 24.75180 57.42155 36710 ft 542 kts 112°
2026-04-27 10:57 24.72292 57.49803 36712 ft 543 kts 112°
2026-04-27 10:57 24.69384 57.57492 36723 ft 542 kts 112°
2026-04-27 10:58 24.66493 57.65124 36727 ft 542 kts 113°
2026-04-27 10:58 24.63598 57.72750 36718 ft 542 kts 113°
2026-04-27 10:59 24.60701 57.80370 36722 ft 541 kts 112°
2026-04-27 10:59 24.57795 57.87996 36718 ft 541 kts 112°
2026-04-27 11:00 24.53448 57.99382 36718 ft 540 kts 112°
2026-04-27 11:00 24.50523 58.07026 36714 ft 540 kts 112°
2026-04-27 11:01 24.47623 58.14591 36716 ft 541 kts 112°
2026-04-27 11:01 24.44697 58.22210 36720 ft 540 kts 112°
2026-04-27 11:02 24.41783 58.29785 36714 ft 541 kts 112°
2026-04-27 11:02 24.38862 58.37366 36712 ft 540 kts 112°
2026-04-27 11:03 24.35927 58.44968 36710 ft 539 kts 112°
2026-04-27 11:03 24.33009 58.52515 36711 ft 538 kts 112°
2026-04-27 11:04 24.30089 58.60052 36711 ft 538 kts 112°
2026-04-27 11:04 24.27163 58.67594 36700 ft 538 kts 112°
2026-04-27 11:05 24.24241 58.75111 36697 ft 538 kts 112°
2026-04-27 11:05 24.21299 58.82667 36698 ft 537 kts 112°
2026-04-27 11:06 24.18352 58.90221 36705 ft 538 kts 112°
2026-04-27 11:06 24.15417 58.97736 36715 ft 538 kts 112°
2026-04-27 11:07 24.12474 59.05255 36722 ft 537 kts 112°
2026-04-27 11:07 24.09538 59.12744 36722 ft 537 kts 112°
2026-04-27 11:08 24.06585 59.20262 36726 ft 536 kts 112°
2026-04-27 11:08 24.03637 59.27758 36726 ft 536 kts 112°
2026-04-27 11:09 24.00685 59.35290 36731 ft 536 kts 111°
2026-04-27 11:09 23.97897 59.42839 36731 ft 535 kts 111°
2026-04-27 11:10 23.95105 59.50404 36736 ft 536 kts 110°
2026-04-27 11:10 23.92308 59.57952 36736 ft 536 kts 110°
2026-04-27 11:11 23.89523 59.65449 36732 ft 536 kts 111°
2026-04-27 11:11 23.86713 59.72994 36714 ft 535 kts 111°
2026-04-27 11:12 23.83901 59.80528 36717 ft 537 kts 111°
2026-04-27 11:12 23.81087 59.88065 36720 ft 537 kts 111°
2026-04-27 11:13 23.78268 59.95602 36713 ft 537 kts 111°
2026-04-27 11:13 23.75445 60.03134 36706 ft 536 kts 111°
2026-04-27 11:14 23.72639 60.10607 36709 ft 534 kts 111°
2026-04-27 11:14 23.69819 60.18106 36711 ft 534 kts 111°
2026-04-27 11:15 23.67005 60.25577 36714 ft 534 kts 111°
2026-04-27 11:15 23.64178 60.33067 36718 ft 534 kts 111°
2026-04-27 11:16 23.61345 60.40562 36722 ft 534 kts 110°
2026-04-27 11:16 23.58531 60.47995 36722 ft 534 kts 111°
2026-04-27 11:17 23.55693 60.55477 36724 ft 534 kts 111°
2026-04-27 11:17 23.52857 60.62941 36728 ft 534 kts 111°
2026-04-27 11:18 23.50022 60.70389 36728 ft 532 kts 111°
2026-04-27 11:18 23.47182 60.77840 36734 ft 532 kts 111°
2026-04-27 11:19 23.44346 60.85266 36735 ft 532 kts 111°
2026-04-27 11:19 23.41518 60.92659 36738 ft 531 kts 111°
2026-04-27 11:20 23.38677 61.00077 36737 ft 532 kts 111°
2026-04-27 11:20 23.35838 61.07475 36737 ft 531 kts 111°
2026-04-27 11:21 23.32996 61.14884 36734 ft 531 kts 109°
2026-04-27 11:21 23.31271 61.22616 36736 ft 525 kts 93°
2026-04-27 11:22 23.30563 61.30521 36733 ft 525 kts 92°
2026-04-27 11:22 23.29875 61.38411 36726 ft 525 kts 92°
2026-04-27 11:23 23.29181 61.46272 36726 ft 525 kts 92°
2026-04-27 11:23 23.28478 61.54156 36724 ft 523 kts 92°
2026-04-27 11:24 23.27769 61.62038 36726 ft 524 kts 92°
2026-04-27 11:24 23.27062 61.69848 36719 ft 523 kts 93°
2026-04-27 11:25 23.26345 61.77715 36719 ft 524 kts 93°
2026-04-27 11:25 23.25625 61.85575 36720 ft 523 kts 93°
2026-04-27 11:26 23.24904 61.93399 36727 ft 524 kts 93°
2026-04-27 11:26 23.24174 62.01269 36738 ft 523 kts 93°
2026-04-27 11:27 23.23439 62.09161 36743 ft 523 kts 93°
2026-04-27 11:27 23.22702 62.17018 36741 ft 524 kts 93°
2026-04-27 11:28 23.21960 62.24887 36740 ft 522 kts 93°
2026-04-27 11:28 23.21220 62.32702 36741 ft 521 kts 93°
2026-04-27 11:29 23.20472 62.40559 36744 ft 522 kts 93°
2026-04-27 11:29 23.19723 62.48383 36747 ft 522 kts 93°
2026-04-27 11:30 23.18970 62.56205 36747 ft 522 kts 93°
2026-04-27 11:30 23.18206 62.64091 36747 ft 521 kts 93°
2026-04-27 11:31 23.17445 62.71924 36739 ft 522 kts 93°
2026-04-27 11:31 23.16678 62.79759 36741 ft 520 kts 93°
2026-04-27 11:32 23.15912 62.87554 36731 ft 521 kts 93°
2026-04-27 11:32 23.15138 62.95387 36723 ft 521 kts 93°
2026-04-27 11:33 23.14366 63.03164 36725 ft 520 kts 93°
2026-04-27 11:33 23.13588 63.10955 36725 ft 519 kts 93°
2026-04-27 11:34 23.12807 63.18747 36724 ft 520 kts 94°
2026-04-27 11:34 23.12020 63.26555 36725 ft 519 kts 94°
2026-04-27 11:35 23.11232 63.34335 36725 ft 520 kts 94°
2026-04-27 11:35 23.10438 63.42137 36727 ft 518 kts 94°
2026-04-27 11:36 23.09640 63.49930 36728 ft 519 kts 93°
2026-04-27 11:36 23.08845 63.57665 36730 ft 517 kts 93°
2026-04-27 11:37 23.08048 63.65376 36739 ft 517 kts 94°
2026-04-27 11:37 23.07240 63.73166 36742 ft 517 kts 94°
2026-04-27 11:38 23.06427 63.80959 36743 ft 517 kts 94°
2026-04-27 11:38 23.05617 63.88710 36744 ft 517 kts 94°
2026-04-27 11:39 23.04836 63.96430 36743 ft 517 kts 94°
2026-04-27 11:39 23.04047 64.04205 36746 ft 516 kts 94°
2026-04-27 11:40 23.03255 64.11960 36746 ft 518 kts 94°
2026-04-27 11:40 23.02463 64.19666 36750 ft 517 kts 93°
2026-04-27 11:41 23.01660 64.27450 36748 ft 517 kts 94°
2026-04-27 11:41 23.00861 64.35146 36751 ft 516 kts 94°
2026-04-27 11:42 23.00052 64.42899 36748 ft 517 kts 93°
2026-04-27 11:42 22.99242 64.50636 36740 ft 516 kts 93°
2026-04-27 11:43 22.98432 64.58330 36735 ft 517 kts 94°
2026-04-27 11:43 22.97608 64.66116 36730 ft 516 kts 94°
2026-04-27 11:44 22.96784 64.73876 36727 ft 517 kts 94°
2026-04-27 11:44 22.95963 64.81570 36725 ft 516 kts 94°
2026-04-27 11:45 22.95780 64.88021 36726 ft 513 kts 86°
2026-04-27 11:45 22.95845 64.97002 36729 ft 514 kts 86°
2026-04-27 11:46 22.95894 65.04767 36731 ft 513 kts 86°
2026-04-27 11:46 22.95937 65.12456 36730 ft 514 kts 86°
2026-04-27 11:47 22.95975 65.20211 36731 ft 512 kts 86°
2026-04-27 11:47 22.96007 65.27913 36734 ft 514 kts 86°
2026-04-27 11:48 22.96036 65.35689 36747 ft 511 kts 86°
2026-04-27 11:48 22.96061 65.43401 36752 ft 513 kts 86°
2026-04-27 11:49 22.96082 65.51109 36750 ft 513 kts 87°
2026-04-27 11:49 22.96099 65.58850 36738 ft 512 kts 87°
2026-04-27 11:50 22.96112 65.66544 36737 ft 511 kts 87°
2026-04-27 11:50 22.96122 65.74284 36733 ft 513 kts 87°
2026-04-27 11:51 22.96127 65.82034 36729 ft 512 kts 87°
2026-04-27 11:51 22.96129 65.89816 37213 ft 517 kts 87°
2026-04-27 11:52 22.96128 65.93703 37885 ft 512 kts 87°
2026-04-27 11:52 22.96126 65.97557 38517 ft 508 kts 87°
2026-04-27 11:52 22.96124 66.01399 38728 ft 511 kts 86°
2026-04-27 11:53 22.96117 66.09109 38726 ft 510 kts 87°
2026-04-27 11:53 22.96106 66.16805 38730 ft 509 kts 87°
2026-04-27 11:54 22.96091 66.24505 38728 ft 507 kts 87°
2026-04-27 11:54 22.96073 66.32177 38730 ft 509 kts 87°
2026-04-27 11:55 22.96051 66.39821 38734 ft 508 kts 87°
2026-04-27 11:55 22.96025 66.47481 38732 ft 508 kts 87°
2026-04-27 11:56 22.95996 66.55170 38729 ft 508 kts 87°
2026-04-27 11:56 22.95962 66.62809 38731 ft 506 kts 87°
2026-04-27 11:57 22.95925 66.70415 38726 ft 506 kts 88°
2026-04-27 11:57 22.95885 66.78040 38726 ft 507 kts 88°
2026-04-27 11:58 22.95841 66.85649 38728 ft 506 kts 88°
2026-04-27 11:58 22.95793 66.93310 38726 ft 506 kts 88°
2026-04-27 11:59 22.95772 67.00877 38733 ft 505 kts 87°
2026-04-27 11:59 22.95795 67.08540 38743 ft 506 kts 87°
2026-04-27 12:00 22.95813 67.16129 38738 ft 505 kts 87°
2026-04-27 12:00 22.95826 67.23775 38732 ft 505 kts 88°
2026-04-27 12:01 22.95834 67.31389 38730 ft 505 kts 88°
2026-04-27 12:01 22.95838 67.39002 38729 ft 506 kts 88°
2026-04-27 12:02 22.95837 67.46644 38732 ft 506 kts 88°
2026-04-27 12:02 22.95833 67.54300 38730 ft 507 kts 88°
2026-04-27 12:03 22.95826 67.61968 38735 ft 507 kts 88°
2026-04-27 12:03 22.95814 67.69559 38731 ft 507 kts 88°
2026-04-27 12:04 22.95799 67.77233 38731 ft 507 kts 88°
2026-04-27 12:04 22.95780 67.84861 38729 ft 508 kts 88°
2026-04-27 12:05 22.95775 67.92519 38731 ft 508 kts 88°
2026-04-27 12:05 22.95785 68.00214 38727 ft 508 kts 88°
2026-04-27 12:06 22.95791 68.07856 38730 ft 506 kts 88°
2026-04-27 12:06 22.95792 68.15501 38730 ft 506 kts 88°
2026-04-27 12:07 22.95790 68.23111 38724 ft 506 kts 88°
2026-04-27 12:07 22.95783 68.30746 38730 ft 506 kts 88°
2026-04-27 12:08 22.95772 68.38357 38722 ft 507 kts 88°
2026-04-27 12:08 22.95388 68.46025 38728 ft 510 kts 92°
2026-04-27 12:09 22.94911 68.53690 38727 ft 510 kts 92°
2026-04-27 12:09 22.94447 68.61343 38731 ft 510 kts 92°
2026-04-27 12:10 22.93990 68.68986 38725 ft 509 kts 92°
2026-04-27 12:10 22.93534 68.76621 38723 ft 507 kts 92°
2026-04-27 12:11 22.93077 68.84262 38726 ft 509 kts 92°
2026-04-27 12:11 22.92621 68.91856 38731 ft 509 kts 92°
2026-04-27 12:12 22.92157 68.99532 38725 ft 510 kts 92°
2026-04-27 12:12 22.91690 69.07201 38730 ft 511 kts 92°
2026-04-27 12:13 22.91223 69.14813 38728 ft 510 kts 92°
2026-04-27 12:13 22.90750 69.22473 38728 ft 511 kts 92°
2026-04-27 12:14 22.90273 69.30135 38731 ft 509 kts 92°
2026-04-27 12:14 22.89792 69.37790 38729 ft 510 kts 92°
2026-04-27 12:15 22.89307 69.45460 38729 ft 510 kts 92°
2026-04-27 12:15 22.88819 69.53124 38729 ft 510 kts 92°
2026-04-27 12:16 22.88330 69.60743 38729 ft 510 kts 92°
2026-04-27 12:16 22.87835 69.68398 38720 ft 511 kts 92°
2026-04-27 12:17 22.87369 69.76082 38720 ft 510 kts 92°
2026-04-27 12:17 22.86929 69.83751 38716 ft 511 kts 92°
2026-04-27 12:18 22.86482 69.91452 38714 ft 512 kts 92°
2026-04-27 12:18 22.86031 69.99133 38712 ft 513 kts 92°
2026-04-27 12:19 22.85573 70.06864 38708 ft 512 kts 92°
2026-04-27 12:19 22.85116 70.14498 38707 ft 510 kts 92°
2026-04-27 12:20 22.84654 70.22151 38701 ft 510 kts 92°
2026-04-27 12:20 22.84187 70.29830 38691 ft 511 kts 92°
2026-04-27 12:21 22.83718 70.37488 38699 ft 511 kts 92°
2026-04-27 12:21 22.83243 70.45171 38697 ft 511 kts 92°
2026-04-27 12:22 22.82764 70.52867 38694 ft 512 kts 92°
2026-04-27 12:22 22.82282 70.60535 38699 ft 510 kts 92°
2026-04-27 12:23 22.81797 70.68218 38697 ft 512 kts 93°
2026-04-27 12:23 22.81336 70.75932 38692 ft 511 kts 89°
2026-04-27 12:24 22.82227 70.83466 38699 ft 505 kts 72°
2026-04-27 12:24 22.85075 70.90364 38694 ft 500 kts 55°
2026-04-27 12:25 22.88898 70.96684 38701 ft 500 kts 54°
2026-04-27 12:25 22.92740 71.02992 38695 ft 501 kts 54°
2026-04-27 12:26 22.96569 71.09297 38699 ft 501 kts 54°
2026-04-27 12:26 23.00396 71.15617 38706 ft 501 kts 54°
2026-04-27 12:27 23.04222 71.21946 38703 ft 501 kts 54°
2026-04-27 12:27 23.08054 71.28294 38703 ft 502 kts 54°
2026-04-27 12:28 23.11884 71.34650 38704 ft 501 kts 54°
2026-04-27 12:28 23.15705 71.40997 38691 ft 501 kts 54°
2026-04-27 12:29 23.19507 71.47323 38684 ft 502 kts 54°
2026-04-27 12:29 23.23330 71.53690 38680 ft 501 kts 54°
2026-04-27 12:30 23.27144 71.60051 38679 ft 501 kts 54°
2026-04-27 12:30 23.30983 71.66461 38673 ft 503 kts 55°
2026-04-27 12:31 23.34795 71.72835 38670 ft 503 kts 55°
2026-04-27 12:31 23.38598 71.79203 38670 ft 502 kts 54°
2026-04-27 12:32 23.42398 71.85572 38674 ft 502 kts 54°
2026-04-27 12:32 23.46194 71.91943 38674 ft 502 kts 54°
2026-04-27 12:33 23.49999 71.98337 38679 ft 503 kts 55°
2026-04-27 12:33 23.53832 72.04786 38684 ft 503 kts 55°
2026-04-27 12:34 23.57610 72.11150 38686 ft 503 kts 54°
2026-04-27 12:34 23.61410 72.17560 38693 ft 502 kts 54°
2026-04-27 12:35 23.65222 72.23998 38697 ft 502 kts 54°
2026-04-27 12:35 23.69017 72.30415 38702 ft 503 kts 54°
2026-04-27 12:36 23.72803 72.36826 38709 ft 503 kts 54°
2026-04-27 12:36 23.76583 72.43236 38712 ft 503 kts 54°
2026-04-27 12:37 23.80368 72.49660 38711 ft 504 kts 54°
2026-04-27 12:37 23.84166 72.56116 38712 ft 505 kts 54°
2026-04-27 12:38 23.87951 72.62558 38714 ft 504 kts 54°
2026-04-27 12:38 23.91763 72.69055 38707 ft 504 kts 55°
2026-04-27 12:39 23.95526 72.75475 38712 ft 504 kts 55°
2026-04-27 12:39 23.99315 72.81950 38715 ft 504 kts 55°
2026-04-27 12:40 24.03108 72.88438 38719 ft 504 kts 55°
2026-04-27 12:40 24.06874 72.94890 38726 ft 504 kts 55°
2026-04-27 12:41 24.10671 73.01405 38723 ft 505 kts 55°
2026-04-27 12:41 24.14432 73.07864 38731 ft 505 kts 55°
2026-04-27 12:42 24.18228 73.14392 38743 ft 505 kts 55°
2026-04-27 12:42 24.22004 73.20895 38762 ft 506 kts 55°
2026-04-27 12:43 24.25797 73.27436 38787 ft 505 kts 55°
2026-04-27 12:43 24.29565 73.33943 38810 ft 506 kts 55°
2026-04-27 12:44 24.33315 73.40427 38830 ft 506 kts 55°
2026-04-27 12:44 24.37113 73.47002 38844 ft 506 kts 55°
2026-04-27 12:45 24.40884 73.53540 38844 ft 505 kts 55°
2026-04-27 12:45 24.44617 73.60020 38828 ft 504 kts 55°
2026-04-27 12:46 24.48378 73.66559 38813 ft 505 kts 55°
2026-04-27 12:46 24.52128 73.73086 38804 ft 505 kts 55°
2026-04-27 12:47 24.55894 73.79651 38800 ft 505 kts 55°
2026-04-27 12:47 24.59711 73.86089 38780 ft 502 kts 49°
2026-04-27 12:48 24.64718 73.91341 38778 ft 495 kts 31°
2026-04-27 12:48 24.70599 73.95214 38791 ft 494 kts 26°
2026-04-27 12:49 24.76570 73.98993 38790 ft 491 kts 26°
2026-04-27 12:49 24.82493 74.02752 38791 ft 491 kts 26°
2026-04-27 12:50 24.88450 74.06541 38792 ft 490 kts 26°
2026-04-27 12:50 24.94363 74.10310 38797 ft 489 kts 26°
2026-04-27 12:51 25.00295 74.14095 38800 ft 490 kts 26°
2026-04-27 12:51 25.06194 74.17864 38806 ft 490 kts 27°
2026-04-27 12:52 25.12130 74.21662 38815 ft 491 kts 26°
2026-04-27 12:52 25.18027 74.25439 38805 ft 490 kts 27°
2026-04-27 12:53 25.26882 74.31119 38797 ft 490 kts 26°
2026-04-27 12:53 25.32836 74.34944 38801 ft 490 kts 26°
2026-04-27 12:54 25.38750 74.38747 38787 ft 490 kts 26°
2026-04-27 12:54 25.44654 74.42548 38783 ft 490 kts 26°
2026-04-27 12:55 25.50536 74.46340 38790 ft 491 kts 26°
2026-04-27 12:55 25.56449 74.50156 38786 ft 490 kts 26°
2026-04-27 12:56 25.62405 74.54005 38778 ft 490 kts 26°
2026-04-27 12:56 25.68292 74.57812 38771 ft 489 kts 26°
2026-04-27 12:57 25.74181 74.61626 38771 ft 489 kts 26°
2026-04-27 12:57 25.80086 74.65454 38761 ft 489 kts 27°
2026-04-27 12:58 25.86002 74.69294 38753 ft 489 kts 27°
2026-04-27 12:58 25.91865 74.73104 38739 ft 490 kts 27°
2026-04-27 12:59 25.97777 74.76950 38742 ft 488 kts 27°
2026-04-27 12:59 26.03637 74.80768 38737 ft 488 kts 27°
2026-04-27 13:00 26.09503 74.84593 38731 ft 488 kts 27°
2026-04-27 13:00 26.15410 74.88450 38731 ft 488 kts 27°
2026-04-27 13:01 26.21264 74.92277 38731 ft 489 kts 27°
2026-04-27 13:01 26.27156 74.96133 38728 ft 488 kts 27°
2026-04-27 13:02 26.33049 74.99993 38730 ft 490 kts 27°
2026-04-27 13:02 26.38924 75.03848 38727 ft 488 kts 27°
2026-04-27 13:03 26.44768 75.07686 38727 ft 488 kts 27°
2026-04-27 13:03 26.50612 75.11509 38722 ft 487 kts 27°
2026-04-27 13:04 26.56501 75.15363 38719 ft 489 kts 27°
2026-04-27 13:04 26.62343 75.19192 38722 ft 488 kts 27°
2026-04-27 13:05 26.68198 75.23035 38713 ft 487 kts 27°
2026-04-27 13:05 26.74022 75.26863 38714 ft 487 kts 27°
2026-04-27 13:06 26.79871 75.30711 38715 ft 486 kts 27°
2026-04-27 13:06 26.85737 75.34575 38713 ft 487 kts 27°
2026-04-27 13:07 26.91595 75.38438 38716 ft 488 kts 27°
2026-04-27 13:07 26.97447 75.42303 38723 ft 488 kts 27°
2026-04-27 13:08 27.03322 75.46188 38738 ft 488 kts 27°
2026-04-27 13:08 27.09208 75.50084 38736 ft 487 kts 27°
2026-04-27 13:09 27.15018 75.53935 38733 ft 487 kts 27°
2026-04-27 13:09 27.20850 75.57806 38738 ft 486 kts 27°
2026-04-27 13:10 27.26712 75.61700 38742 ft 488 kts 27°
2026-04-27 13:10 27.32565 75.65594 38729 ft 488 kts 27°
2026-04-27 13:11 27.38432 75.69501 38726 ft 489 kts 27°
2026-04-27 13:11 27.44312 75.73423 38730 ft 489 kts 27°
2026-04-27 13:12 27.50123 75.77304 38737 ft 488 kts 27°
2026-04-27 13:12 27.56006 75.81236 38738 ft 489 kts 27°
2026-04-27 13:13 27.61859 75.85155 38715 ft 489 kts 27°
2026-04-27 13:13 27.68020 75.88291 38716 ft 485 kts 17°
2026-04-27 13:14 27.74390 75.91035 38699 ft 486 kts 17°
2026-04-27 13:14 27.80706 75.93761 38694 ft 486 kts 18°
2026-04-27 13:15 27.87048 75.96506 38694 ft 485 kts 17°
2026-04-27 13:15 27.93382 75.99252 38683 ft 486 kts 17°
2026-04-27 13:16 27.99709 76.02000 38681 ft 487 kts 17°
2026-04-27 13:16 28.06032 76.04750 38679 ft 486 kts 17°
2026-04-27 13:17 28.12397 76.07522 38679 ft 488 kts 18°
2026-04-27 13:17 28.15499 76.08942 38668 ft 476 kts 22°
2026-04-27 13:17 28.18383 76.10786 38676 ft 465 kts 31°
2026-04-27 13:18 28.20892 76.13010 38680 ft 453 kts 39°
2026-04-27 13:18 28.23028 76.15546 38689 ft 440 kts 48°
2026-04-27 13:18 28.26283 76.21238 38124 ft 427 kts 57°
2026-04-27 13:19 28.27775 76.24210 37374 ft 430 kts 58°
2026-04-27 13:19 28.29247 76.27146 36729 ft 429 kts 58°
2026-04-27 13:19 28.30697 76.30043 36308 ft 424 kts 58°
2026-04-27 13:19 28.32153 76.32956 35947 ft 417 kts 58°
2026-04-27 13:20 28.33591 76.35832 35476 ft 413 kts 58°
2026-04-27 13:20 28.35005 76.38661 34910 ft 412 kts 58°
2026-04-27 13:20 28.36410 76.41474 34364 ft 410 kts 58°
2026-04-27 13:20 28.37821 76.44302 33416 ft 414 kts 58°
2026-04-27 13:21 28.39257 76.47177 32055 ft 427 kts 58°
2026-04-27 13:21 28.40734 76.50135 30460 ft 445 kts 58°
2026-04-27 13:21 28.42276 76.53225 28675 ft 464 kts 58°
2026-04-27 13:21 28.43875 76.56432 26746 ft 483 kts 58°
2026-04-27 13:22 28.45540 76.59776 24704 ft 499 kts 59°
2026-04-27 13:22 28.47229 76.63171 23245 ft 497 kts 59°
2026-04-27 13:22 28.48745 76.66652 22401 ft 483 kts 68°
2026-04-27 13:22 28.49725 76.70229 21753 ft 467 kts 77°
2026-04-27 13:23 28.50182 76.73818 20940 ft 461 kts 86°
2026-04-27 13:23 28.50114 76.77450 20077 ft 458 kts 96°
2026-04-27 13:23 28.49655 76.80993 19292 ft 454 kts 99°
2026-04-27 13:23 28.49100 76.84476 18522 ft 449 kts 101°
2026-04-27 13:24 28.48499 76.87922 17760 ft 443 kts 101°
2026-04-27 13:24 28.47871 76.91322 17008 ft 438 kts 102°
2026-04-27 13:24 28.47221 76.94692 16271 ft 433 kts 102°
2026-04-27 13:24 28.46562 76.98010 15533 ft 428 kts 102°
2026-04-27 13:25 28.45900 77.01259 15058 ft 420 kts 103°
2026-04-27 13:25 28.45230 77.04499 14974 ft 425 kts 103°
2026-04-27 13:25 28.44542 77.07787 14966 ft 425 kts 103°
2026-04-27 13:25 28.43870 77.10965 14711 ft 412 kts 103°
2026-04-27 13:26 28.43198 77.14128 13856 ft 413 kts 103°
2026-04-27 13:26 28.42522 77.17298 12918 ft 415 kts 103°
2026-04-27 13:26 28.41846 77.20448 12178 ft 411 kts 103°
2026-04-27 13:26 28.41172 77.23583 11504 ft 405 kts 103°
2026-04-27 13:27 28.40511 77.26646 10819 ft 400 kts 103°
2026-04-27 13:27 28.39839 77.29696 10107 ft 397 kts 104°
2026-04-27 13:27 28.39075 77.32670 9402 ft 394 kts 105°
2026-04-27 13:27 28.38297 77.35643 8692 ft 390 kts 105°
2026-04-27 13:28 28.37543 77.38534 8248 ft 379 kts 105°
2026-04-27 13:28 28.36812 77.41341 8100 ft 360 kts 105°
2026-04-27 13:28 28.36123 77.43990 8050 ft 340 kts 105°
2026-04-27 13:28 28.35468 77.46510 7775 ft 331 kts 105°
2026-04-27 13:29 28.34818 77.49017 7174 ft 334 kts 104°
2026-04-27 13:29 28.34158 77.51569 6442 ft 341 kts 104°
2026-04-27 13:29 28.33487 77.54157 5772 ft 345 kts 104°
2026-04-27 13:29 28.32815 77.56746 5189 ft 345 kts 104°
2026-04-27 13:30 28.32141 77.59343 4601 ft 345 kts 104°
2026-04-27 13:30 28.31461 77.61958 3971 ft 346 kts 104°
2026-04-27 13:30 28.30789 77.64545 3352 ft 346 kts 104°
2026-04-27 13:30 28.30113 77.67153 3031 ft 343 kts 103°
2026-04-27 13:31 28.29857 77.69795 2966 ft 326 kts 83°
2026-04-27 13:31 28.30367 77.72181 2961 ft 299 kts 63°
2026-04-27 13:31 28.31404 77.74081 2959 ft 274 kts 45°
2026-04-27 13:31 28.32783 77.75453 2952 ft 251 kts 25°
2026-04-27 13:32 28.34377 77.75965 2936 ft 234 kts 355°
2026-04-27 13:32 28.35911 77.75474 2937 ft 226 kts 324°
2026-04-27 13:32 28.37063 77.74281 2953 ft 222 kts 312°
2026-04-27 13:32 28.38103 77.72987 2956 ft 221 kts 311°
2026-04-27 13:33 28.38957 77.71563 2946 ft 221 kts 292°
2026-04-27 13:33 28.39450 77.69909 2958 ft 222 kts 289°
2026-04-27 13:33 28.39924 77.68227 2959 ft 222 kts 289°
2026-04-27 13:33 28.40395 77.66552 2960 ft 221 kts 289°
2026-04-27 13:34 28.40858 77.64905 2959 ft 221 kts 289°
2026-04-27 13:34 28.41325 77.63240 2960 ft 221 kts 290°
2026-04-27 13:34 28.41794 77.61569 2960 ft 222 kts 289°
2026-04-27 13:34 28.42264 77.59892 2962 ft 222 kts 289°
2026-04-27 13:35 28.42730 77.58224 2963 ft 222 kts 289°
2026-04-27 13:35 28.43205 77.56524 2963 ft 223 kts 289°
2026-04-27 13:35 28.43669 77.54858 2964 ft 222 kts 289°
2026-04-27 13:35 28.44135 77.53181 2966 ft 221 kts 289°
2026-04-27 13:36 28.44589 77.51520 2965 ft 221 kts 289°
2026-04-27 13:36 28.45053 77.49831 2963 ft 221 kts 289°
2026-04-27 13:36 28.45509 77.48167 2961 ft 219 kts 289°
2026-04-27 13:36 28.45944 77.46571 2957 ft 206 kts 289°
2026-04-27 13:37 28.46362 77.45041 2960 ft 198 kts 290°
2026-04-27 13:37 28.46767 77.43561 2966 ft 198 kts 290°
2026-04-27 13:37 28.47177 77.42062 2970 ft 199 kts 290°
2026-04-27 13:37 28.47588 77.40557 2970 ft 199 kts 290°
2026-04-27 13:38 28.47996 77.39061 2970 ft 200 kts 290°
2026-04-27 13:38 28.48402 77.37563 2962 ft 190 kts 288°
2026-04-27 13:38 28.48550 77.36122 2965 ft 175 kts 280°
2026-04-27 13:38 28.48768 77.34837 2965 ft 159 kts 288°
2026-04-27 13:39 28.49072 77.33647 2975 ft 157 kts 290°
2026-04-27 13:39 28.49395 77.32449 2974 ft 156 kts 290°
2026-04-27 13:39 28.49713 77.31268 2976 ft 156 kts 290°
2026-04-27 13:39 28.50017 77.30095 2978 ft 156 kts 287°
2026-04-27 13:40 28.50267 77.28880 2981 ft 157 kts 287°
2026-04-27 13:40 28.50514 77.27683 2979 ft 153 kts 286°
2026-04-27 13:40 28.50738 77.26543 2977 ft 143 kts 287°
2026-04-27 13:40 28.50966 77.25484 2981 ft 135 kts 288°
2026-04-27 13:41 28.51191 77.24461 2984 ft 132 kts 288°
2026-04-27 13:41 28.51418 77.23427 2888 ft 135 kts 288°
2026-04-27 13:41 28.51638 77.22409 2738 ft 132 kts 288°
2026-04-27 13:41 28.51861 77.21381 2579 ft 134 kts 287°
2026-04-27 13:42 28.52084 77.20357 2416 ft 133 kts 287°
2026-04-27 13:42 28.52307 77.19329 2257 ft 133 kts 287°
2026-04-27 13:42 28.52532 77.18291 2090 ft 134 kts 287°
2026-04-27 13:42 28.52753 77.17270 1939 ft 133 kts 287°
2026-04-27 13:43 28.52976 77.16241 1770 ft 134 kts 287°
2026-04-27 13:43 28.53203 77.15208 1596 ft 135 kts 286°
2026-04-27 13:43 28.53421 77.14176 1417 ft 135 kts 285°
2026-04-27 13:43 28.53651 77.13130 1255 ft 137 kts 286°
2026-04-27 13:44 28.53880 77.12071 1079 ft 140 kts 285°
2026-04-27 13:44 28.54114 77.10986 893 ft 142 kts 285°
2026-04-27 13:44 28.54351 77.09897 786 ft 134 kts 285°
2026-04-27 13:44 28.54548 77.08990 785 ft 97 kts 284°
2026-04-27 13:45 28.54643 77.08546 784 ft 15 kts 284°
2026-04-27 13:45 28.54695 77.08462 784 ft 12 kts 312°
2026-04-27 13:45 28.54753 77.08391 784 ft 11 kts 311°
2026-04-27 13:45 28.54806 77.08324 784 ft 10 kts 312°
2026-04-27 13:46 28.54857 77.08264 784 ft 10 kts 315°
2026-04-27 13:46 28.54907 77.08211 784 ft 9 kts 316°
2026-04-27 13:46 28.54946 77.08154 784 ft 8 kts 292°
2026-04-27 13:46 28.54964 77.08088 784 ft 8 kts 285°
2026-04-27 13:47 28.54979 77.08025 784 ft 8 kts 285°
2026-04-27 13:47 28.54994 77.07964 784 ft 7 kts 284°
2026-04-27 13:47 28.55007 77.07905 784 ft 7 kts 284°
2026-04-27 13:47 28.55037 77.07879 784 ft 6 kts 358°
2026-04-27 13:48 28.55078 77.07886 784 ft 6 kts 12°
2026-04-27 13:48 28.55120 77.07897 784 ft 6 kts 13°
2026-04-27 13:48 28.55160 77.07909 784 ft 5 kts 21°
2026-04-27 13:48 28.55193 77.07937 784 ft 5 kts 48°
2026-04-27 13:49 28.55234 77.07983 784 ft 10 kts 14°
2026-04-27 13:49 28.55299 77.07955 784 ft 10 kts 330°
2026-04-27 13:49 28.55351 77.07922 784 ft 4 kts 331°